Previsão horária em Ábrahámhegy

Hoje, 9 Maio, Domingo

Tempo Temperatura Precipitação Vento Pressão Humidade
00:00 +7°C° 0 mm 2 m/s 753 mmHg 65%
01:00 +7°C° 0 mm 2 m/s 753 mmHg 65%
02:00 +7°C° 0 mm 2 m/s 753 mmHg 66%
03:00 +6°C° 0 mm 2 m/s 752 mmHg 68%
04:00 +6°C° 0 mm 2 m/s 752 mmHg 69%
05:00 +7°C° 0 mm 3 m/s 752 mmHg 66%
06:00 +9°C° 0 mm 3 m/s 753 mmHg 64%
07:00 +10°C° 0 mm 4 m/s 753 mmHg 62%
08:00 +12°C° 0 mm 4 m/s 753 mmHg 57%
09:00 +14°C° 0 mm 5 m/s 753 mmHg 53%
10:00 +15°C° 0 mm 5 m/s 752 mmHg 49%
11:00 +17°C° 0 mm 5 m/s 752 mmHg 47%
12:00 +19°C° 0 mm 6 m/s 752 mmHg 45%
13:00 +20°C° 0 mm 6 m/s 752 mmHg 44%
14:00 +20°C° 0 mm 6 m/s 751 mmHg 47%
15:00 +20°C° 0 mm 5 m/s 751 mmHg 50%
16:00 +20°C° 0 mm 5 m/s 750 mmHg 54%
17:00 +17°C° 0 mm 5 m/s 750 mmHg 59%
18:00 +15°C° 0 mm 4 m/s 750 mmHg 64%
19:00 +14°C° 0 mm 4 m/s 750 mmHg 70%
20:00 +13°C° 0 mm 4 m/s 750 mmHg 70%
21:00 +12°C° 0 mm 3 m/s 750 mmHg 70%
22:00 +11°C° 0 mm 3 m/s 750 mmHg 70%
23:00 +11°C° 0 mm 3 m/s 750 mmHg 71%

Amanhã, 10 Maio, Segunda-feira

Tempo Temperatura Precipitação Vento Pressão Humidade
00:00 +10°C° 0 mm 3 m/s 749 mmHg 72%
01:00 +10°C° 0 mm 3 m/s 749 mmHg 73%
02:00 +9°C° 0 mm 3 m/s 749 mmHg 75%
03:00 +9°C° 0 mm 3 m/s 749 mmHg 77%
04:00 +9°C° 0 mm 3 m/s 749 mmHg 78%
05:00 +10°C° 0 mm 4 m/s 749 mmHg 76%
06:00 +12°C° 0 mm 4 m/s 749 mmHg 73%
07:00 +13°C° 0 mm 4 m/s 749 mmHg 70%
08:00 +15°C° 0 mm 5 m/s 748 mmHg 65%
09:00 +19°C° 0 mm 6 m/s 748 mmHg 59%
10:00 +21°C° 0 mm 6 m/s 748 mmHg 54%
11:00 +22°C° 0 mm 6 m/s 748 mmHg 53%
12:00 +23°C° 0 mm 7 m/s 748 mmHg 52%
13:00 +24°C° 0 mm 7 m/s 747 mmHg 51%
14:00 +24°C° 0 mm 6 m/s 747 mmHg 53%
15:00 +24°C° 0 mm 6 m/s 747 mmHg 54%
16:00 +26°C° 0 mm 6 m/s 747 mmHg 55%
17:00 +23°C° 0 mm 5 m/s 747 mmHg 62%
18:00 +21°C° 0 mm 5 m/s 747 mmHg 68%
19:00 +19°C° 0 mm 4 m/s 747 mmHg 74%
20:00 +18°C° 0 mm 4 m/s 747 mmHg 74%
21:00 +18°C° 0 mm 4 m/s 747 mmHg 75%
22:00 +17°C° 0 mm 4 m/s 747 mmHg 75%
23:00 +15°C° 0 mm 4 m/s 747 mmHg 76%

Depois de amanhã, 11 Maio, Terça-feira

Tempo Temperatura Precipitação Vento Pressão Humidade
00:00 +15°C° 0 mm 4 m/s 747 mmHg 78%
01:00 +14°C° 0 mm 4 m/s 747 mmHg 79%
02:00 +14°C° 0 mm 4 m/s 746 mmHg 81%
03:00 +13°C° 0 mm 3 m/s 746 mmHg 83%
04:00 +13°C° 0 mm 3 m/s 746 mmHg 85%
05:00 +14°C° 0 mm 3 m/s 746 mmHg 82%
06:00 +16°C° 0 mm 3 m/s 746 mmHg 79%
07:00 +17°C° 0 mm 4 m/s 746 mmHg 76%
08:00 +19°C° 0 mm 4 m/s 746 mmHg 70%
09:00 +21°C° 0 mm 4 m/s 746 mmHg 65%
10:00 +22°C° 0 mm 4 m/s 746 mmHg 59%
11:00 +23°C° 0 mm 4 m/s 745 mmHg 55%
12:00 +25°C° 0 mm 4 m/s 745 mmHg 51%
13:00 +26°C° 0 mm 4 m/s 744 mmHg 47%
14:00 +26°C° 0 mm 4 m/s 744 mmHg 50%
15:00 +26°C° 0 mm 4 m/s 743 mmHg 52%
16:00 +26°C° 0 mm 4 m/s 743 mmHg 55%
17:00 +25°C° 0 mm 4 m/s 742 mmHg 63%
18:00 +22°C° 0 mm 4 m/s 742 mmHg 71%
19:00 +20°C° 0 mm 3 m/s 742 mmHg 79%
20:00 +19°C° 0 mm 3 m/s 742 mmHg 80%
21:00 +18°C° 0 mm 3 m/s 741 mmHg 80%
22:00 +17°C° 0 mm 3 m/s 741 mmHg 81%
23:00 +17°C° 0.1 mm 3 m/s 741 mmHg 83%

12 Maio, Quarta-feira

Tempo Temperatura Precipitação Vento Pressão Humidade
00:00 +16°C° 0.1 mm 3 m/s 741 mmHg 85%
01:00 +15°C° 0.1 mm 2 m/s 740 mmHg 87%
02:00 +14°C° 0.1 mm 3 m/s 740 mmHg 87%
03:00 +13°C° 0.1 mm 3 m/s 740 mmHg 86%
04:00 +13°C° 0.1 mm 3 m/s 739 mmHg 86%
05:00 +13°C° 0.1 mm 3 m/s 740 mmHg 85%
06:00 +14°C° 0.1 mm 2 m/s 740 mmHg 85%
07:00 +14°C° 0.1 mm 2 m/s 740 mmHg 84%
08:00 +14°C° 0.7 mm 2 m/s 740 mmHg 86%
09:00 +14°C° 0.7 mm 2 m/s 740 mmHg 88%
10:00 +14°C° 0.7 mm 1 m/s 740 mmHg 90%
11:00 +14°C° 2.2 mm 2 m/s 741 mmHg 92%
12:00 +13°C° 2.2 mm 3 m/s 741 mmHg 93%
13:00 +12°C° 2.2 mm 4 m/s 741 mmHg 95%
14:00 +13°C° 0.8 mm 4 m/s 741 mmHg 91%
15:00 +13°C° 0.8 mm 4 m/s 741 mmHg 88%
16:00 +13°C° 0.8 mm 4 m/s 741 mmHg 84%
17:00 +13°C° 0.1 mm 4 m/s 741 mmHg 85%
18:00 +12°C° 0.1 mm 3 m/s 741 mmHg 86%
19:00 +13°C° 0.1 mm 2 m/s 741 mmHg 87%
20:00 +13°C° 0 mm 2 m/s 741 mmHg 87%
21:00 +13°C° 0 mm 2 m/s 741 mmHg 87%
22:00 +13°C° 0 mm 1 m/s 741 mmHg 87%
23:00 +12°C° 0.1 mm 2 m/s 741 mmHg 89%

13 Maio, Quinta-feira

Tempo Temperatura Precipitação Vento Pressão Humidade
00:00 +12°C° 0.1 mm 2 m/s 740 mmHg 91%
01:00 +12°C° 0.1 mm 2 m/s 740 mmHg 93%
02:00 +12°C° 0.3 mm 2 m/s 740 mmHg 94%
03:00 +12°C° 0.3 mm 2 m/s 740 mmHg 95%
04:00 +12°C° 0.3 mm 2 m/s 740 mmHg 96%
05:00 +12°C° 0.3 mm 2 m/s 740 mmHg 96%
06:00 +12°C° 0.3 mm 2 m/s 740 mmHg 96%
07:00 +12°C° 0.3 mm 2 m/s 740 mmHg 96%
08:00 +12°C° 0.4 mm 2 m/s 740 mmHg 95%
09:00 +12°C° 0.4 mm 2 m/s 740 mmHg 93%
10:00 +13°C° 0.4 mm 2 m/s 740 mmHg 92%
11:00 +13°C° 0.1 mm 2 m/s 740 mmHg 91%
12:00 +13°C° 0.1 mm 2 m/s 740 mmHg 90%
13:00 +13°C° 0.1 mm 2 m/s 740 mmHg 90%
14:00 +13°C° 0.3 mm 2 m/s 741 mmHg 90%
15:00 +12°C° 0.3 mm 2 m/s 741 mmHg 91%
16:00 +11°C° 0.3 mm 3 m/s 741 mmHg 92%
17:00 +12°C° 0.3 mm 2 m/s 741 mmHg 92%
18:00 +12°C° 0.3 mm 2 m/s 741 mmHg 93%
19:00 +10°C° 0.3 mm 2 m/s 742 mmHg 93%
20:00 +10°C° 0.2 mm 2 m/s 742 mmHg 93%
21:00 +10°C° 0.2 mm 2 m/s 742 mmHg 94%
22:00 +10°C° 0.2 mm 2 m/s 742 mmHg 94%
23:00 +10°C° 0.3 mm 2 m/s 742 mmHg 94%

14 Maio, Sexta-feira

Tempo Temperatura Precipitação Vento Pressão Humidade
00:00 +10°C° 0.3 mm 2 m/s 743 mmHg 94%
01:00 +10°C° 0.3 mm 2 m/s 743 mmHg 94%
02:00 +10°C° 0.5 mm 2 m/s 743 mmHg 95%
03:00 +10°C° 0.5 mm 2 m/s 743 mmHg 95%
04:00 +10°C° 0.5 mm 2 m/s 743 mmHg 96%
05:00 +10°C° 0.4 mm 2 m/s 744 mmHg 95%
06:00 +10°C° 0.4 mm 2 m/s 744 mmHg 95%
07:00 +10°C° 0.4 mm 2 m/s 744 mmHg 95%
08:00 +10°C° 0.1 mm 2 m/s 744 mmHg 93%
09:00 +12°C° 0.1 mm 2 m/s 745 mmHg 90%
10:00 +12°C° 0.1 mm 2 m/s 745 mmHg 88%
11:00 +13°C° 0 mm 2 m/s 745 mmHg 85%
12:00 +13°C° 0 mm 2 m/s 746 mmHg 83%
13:00 +14°C° 0 mm 2 m/s 746 mmHg 81%
14:00 +14°C° 0 mm 2 m/s 746 mmHg 78%
15:00 +15°C° 0 mm 2 m/s 746 mmHg 76%
16:00 +15°C° 0 mm 2 m/s 746 mmHg 73%
17:00 +15°C° 0 mm 2 m/s 746 mmHg 78%
18:00 +14°C° 0 mm 2 m/s 746 mmHg 82%
19:00 +13°C° 0 mm 2 m/s 746 mmHg 87%
20:00 +12°C° 0 mm 2 m/s 746 mmHg 89%
21:00 +12°C° 0 mm 2 m/s 747 mmHg 91%
22:00 +10°C° 0 mm 2 m/s 747 mmHg 93%
23:00 +10°C° 0 mm 2 m/s 747 mmHg 93%
Mostrar mais

Necessitamos do seu Consentimento

A Meteoprog e os seus Fornecedores de Serviços podem armazenar e aceder a dados pessoais como cookies, identificadores do dispositivo ou outras tecnologias semelhantes existentes no seu dispositivo e processar estes dados para personalizar conteúdos e anúncios, assim como funcionalidades nas redes sociais e análise de tráfego.

  • Armazenar e/ou aceder a informações no seu dispositivo

    Os cookies, identificadores do dispositivo ou outras informações podem ser armazenados ou acedidos no seu dispositivo, para os fins acima indicados.

  • Anúncios e conteúdos personalizados, medição de anúncios e conteúdos, dados sobre o público-alvo e desenvolvimento de produtos

    Os anúncios e os conteúdos podem ser personalizados com base num perfil. Podem ser adicionados dados adicionais para uma maior personalização dos anúncios e dos conteúdos. A eficácia dos anúncios e dos conteúdos pode ser medida. Podem ser obtidas informações sobre o público que visualizou os anúncios e os conteúdos. Estes dados podem ser usados para desenvolver ou melhorar sistemas, softwares ou a experiência do utilizador.

Ao clicar em "Eu concordo”, permitirá o uso de cookies, identificadores do dispositivo e web beacons mencionados ou outras tecnologias semelhantes. As configurações do navegador do seu dispositivo podem ser alteradas.

Para certos fins, podem ser invocados interesses legítimos ao invés de consentimento. Pode ler mais informação sobre este assunto na nossa Política de Privacidade e Cookies.